Location: Newark
(23.5328°S, 46.7919°W)
Time: 14:11:47
(UTC+00:00)

N. Korean satellite - Pass Details

Date: 14 March 2021
Orbit: 452 x 499 km, 97.2° (Epoch: 17 April)

Event Time Altitude Azimuth Distance (km) Brightness Sun altitude
Rises 08:36:01 0° 344° (NNW) 2,578 10.0 -8.3°
Reaches altitude 10° 08:38:29 10° 326° (NNW) 1,703 9.0 -7.7°
Maximum altitude 08:41:16 20° 277° (W) 1,198 7.9 -7.1°
Drops below altitude 10° 08:44:03 10° 228° (SW) 1,714 8.9 -6.4°
Sets 08:46:33 0° 211° (SSW) 2,600 10.0 -5.9°
